1511748001.03,5905,7.44,72908.3,-15.47,-16.65,-16.41,0,*58
1511748002.28,5906,7.44,72908.5,-15.47,-16.55,-16.41,0,*58
1511748003.56,5907,7.44,72910.3,-15.47,-16.65,-16.51,0,*5B
1511748004.83,5908,7.44,72908.8,-15.47,-16.55,-16.51,0,*57
1511748006.04,5909,7.44,72908.8,-15.49,-16.59,-16.55,0,*50
1511748007.26,5910,7.44,72908.3,-15.49,-16.59,-16.59,0,*54
1511748008.5,5911,7.38,72904.8,-15.47,-16.55,-16.41,0,*5E
1511748009.72,5912,7.44,72910.0,-15.49,-16.59,-16.59,0,*56
1511748010.94,5913,7.44,72908.3,-15.49,-16.55,-16.55,0,*57
1511748012.16,5914,7.38,72904.5,-15.49,-16.59,-16.59,0,*50
1511748013.38,5915,7.44,72904.0,-15.49,-16.59,-16.59,0,*51
1511748014.6,5916,7.44,72908.8,-15.49,-16.59,-16.55,0,*5E
1511748015.84,5917,7.44,72910.8,-15.49,-16.69,-16.55,0,*5C
1511748017.08,5918,7.44,72906.3,-15.49,-16.69,-16.55,0,*53
1511748018.3,5919,7.44,72908.8,-15.49,-16.59,-16.59,0,*5D
1511748019.56,5920,7.44,72906.3,-15.47,-16.55,-16.51,0,*5D
1511748020.81,5921,7.44,72908.8,-15.49,-16.69,-16.55,0,*59
1511748022.05,5922,7.44,72904.8,-15.49,-16.69,-16.55,0,*5A
1511748023.29,5923,7.44,72904.8,-15.51,-16.59,-16.59,0,*5D
1511748024.51,5924,7.44,72906.8,-15.49,-16.59,-16.59,0,*53
1511748025.73,5925,7.44,72908.5,-15.49,-16.45,-16.55,0,*53
1511748026.97,5926,7.44,72908.0,-15.49,-16.69,-16.59,0,*52
1511748028.21,5927,7.44,72908.5,-15.47,-16.55,-16.55,0,*5E
1511748029.44,5928,7.44,72906.0,-15.49,-16.55,-16.59,0,*53
1511748030.68,5929,7.44,72908.3,-15.49,-16.69,-16.59,0,*5D
1511748031.92,5930,7.44,72908.8,-15.49,-16.59,-16.69,0,*55
1511748033.16,5931,7.44,72906.3,-15.51,-16.59,-16.59,0,*5E
1511748034.41,5932,7.44,72910.0,-15.49,-16.69,-16.59,0,*57
1511748035.63,5933,7.44,72908.0,-15.49,-16.59,-16.59,0,*55
1511748036.85,5934,7.44,72910.0,-15.49,-16.59,-16.59,0,*52
1511748038.07,5935,7.44,72904.0,-15.49,-16.59,-16.59,0,*53
1511748039.33,5936,7.44,72906.0,-15.51,-16.69,-16.59,0,*5A
1511748040.58,5937,7.44,72902.8,-15.51,-16.59,-16.59,0,*58
1511748041.84,5938,7.44,72904.0,-15.51,-16.69,-16.59,0,*54
1511748043.07,5939,7.44,72904.5,-15.53,-16.59,-16.55,0,*58
1511748044.33,5940,7.44,72904.8,-15.51,-16.69,-16.55,0,*57
1511748045.62,5941,7.44,72900.3,-15.51,-16.69,-16.69,0,*59
1511748046.87,5942,7.44,72906.5,-15.53,-16.69,-16.59,0,*5B
1511748048.11,5943,7.38,72902.8,-15.53,-16.69,-16.59,0,*5A
1511748049.33,5944,7.44,72904.5,-15.53,-16.59,-16.55,0,*52
1511748050.6,5945,7.44,72904.0,-15.51,-16.69,-16.59,0,*5E
1511748051.87,5946,7.44,72906.5,-15.51,-16.75,-16.69,0,*53
1511748053.09,5947,7.38,72900.5,-15.53,-16.75,-16.59,0,*53
1511748054.31,5948,7.44,72902.3,-15.53,-16.59,-16.59,0,*52
1511748055.54,5949,7.44,72906.0,-15.53,-16.59,-16.59,0,*53
1511748056.78,5950,7.44,72906.8,-15.51,-16.75,-16.59,0,*57
1511748058.0,5951,7.44,72902.5,-15.53,-16.59,-16.59,0,*5A
1511748059.25,5952,7.44,72906.5,-15.51,-16.59,-16.59,0,*5B
1511748060.49,5953,7.44,72904.8,-15.53,-16.59,-16.69,0,*5B
1511748061.74,5954,7.44,72904.0,-15.53,-16.69,-16.59,0,*5C
1511748062.99,5955,7.44,72900.5,-15.53,-16.69,-16.59,0,*5D
1511748064.23,5956,7.44,72902.3,-15.51,-16.59,-16.55,0,*53
1511748065.47,5957,7.38,72900.5,-15.53,-16.69,-16.59,0,*5F
1511748066.72,5958,7.44,72906.5,-15.53,-16.83,-16.69,0,*57
1511748067.96,5959,7.44,72906.3,-15.53,-16.69,-16.59,0,*51
1511748069.21,5960,7.44,72906.5,-15.53,-16.83,-16.69,0,*5C
1511748070.46,5961,7.44,72904.8,-15.53,-16.69,-16.59,0,*5A
1511748071.68,5962,7.44,72900.8,-15.53,-16.75,-16.59,0,*54
1511748072.9,5963,7.44,72906.3,-15.53,-16.75,-16.55,0,*59
1511748074.15,5964,7.44,72906.8,-15.53,-16.69,-16.59,0,*5F
1511748075.42,5965,7.44,72904.5,-15.53,-16.69,-16.69,0,*5D
1511748076.68,5966,7.44,72904.3,-15.53,-16.69,-16.69,0,*5E
1511748077.93,5967,7.44,72904.5,-15.53,-16.69,-16.59,0,*5C
1511748079.17,5968,7.44,72906.5,-15.57,-16.75,-16.75,0,*54
1511748080.42,5969,7.44,72906.0,-15.57,-16.79,-16.75,0,*59
1511748081.64,5970,7.44,72906.8,-15.53,-16.75,-16.59,0,*57
1511748082.88,5971,7.44,72904.0,-15.57,-16.75,-16.75,0,*5C
1511748084.12,5972,7.44,72906.5,-15.57,-16.75,-16.75,0,*5F
1511748085.38,5973,7.44,72904.5,-15.57,-16.75,-16.65,0,*5F
1511748086.65,5974,7.44,72906.5,-15.57,-16.65,-16.75,0,*58
1511748087.9,5975,7.44,72904.8,-15.53,-16.75,-16.69,0,*51
1511748089.12,5976,7.44,72906.5,-15.53,-16.75,-16.59,0,*51
1511748090.37,5977,7.44,72908.0,-15.53,-16.69,-16.55,0,*51
1511748091.59,5978,7.38,72904.0,-15.53,-16.75,-16.59,0,*5F
1511748092.84,5979,7.44,72908.8,-15.53,-16.69,-16.59,0,*53
1511748094.08,5980,7.44,72910.5,-15.57,-16.79,-16.75,0,*5E
1511748095.31,5981,7.44,72904.3,-15.59,-16.79,-16.65,0,*50
1511748096.58,5982,7.44,72904.5,-15.57,-16.65,-16.59,0,*5F
1511748097.84,5983,7.44,72906.0,-15.57,-16.75,-16.65,0,*50
1511748099.08,5984,7.44,72906.5,-15.57,-16.75,-16.75,0,*56
1511748100.37,5985,7.44,72904.8,-15.57,-16.65,-16.65,0,*57
1511748101.64,5986,7.44,72908.3,-15.57,-16.65,-16.59,0,*5B
1511748102.88,5987,7.44,72908.8,-15.59,-16.65,-16.59,0,*54
1511748104.13,5988,7.44,72908.0,-15.57,-16.59,-16.51,0,*52
1511748105.42,5989,7.44,72906.3,-15.57,-16.65,-16.51,0,*5C
1511748106.63,5990,7.44,72906.8,-15.59,-16.59,-16.59,0,*5D
1511748107.86,5991,7.44,72910.3,-15.59,-16.59,-16.51,0,*54
1511748109.14,5992,7.44,72910.0,-15.57,-16.51,-16.51,0,*51
1511748110.37,5993,7.44,72906.8,-15.59,-16.59,-16.51,0,*56
1511748111.62,5994,7.44,72906.3,-15.59,-16.51,-16.51,0,*59
1511748112.88,5995,7.44,72908.8,-15.57,-16.59,-16.51,0,*5E
1511748114.16,5996,7.44,72910.3,-15.57,-16.51,-16.51,0,*55
1511748115.42,5997,7.38,72906.0,-15.57,-16.59,-16.51,0,*5C
1511748116.68,5998,7.44,72906.5,-15.57,-16.59,-16.51,0,*53
1511748117.89,5999,7.44,72908.0,-15.53,-16.55,-16.45,0,*5F
1511748119.17,6000,7.38,72904.8,-15.57,-16.51,-16.51,0,*50
1511748120.43,6001,7.44,72906.3,-15.59,-16.51,-16.51,0,*5F
1511748121.71,6002,7.44,72904.5,-15.57,-16.51,-16.51,0,*52
1511748122.99,6003,7.44,72904.5,-15.57,-16.51,-16.51,0,*53
1511748124.22,6004,7.44,72902.0,-15.59,-16.51,-16.59,0,*52
1511748125.43,6005,7.44,72900.3,-15.53,-16.45,-16.45,0,*51
1511748126.68,6006,7.44,72900.0,-15.59,-16.51,-16.51,0,*58
1511748127.96,6007,7.44,72896.8,-15.57,-16.51,-16.51,0,*57
1511748129.25,6008,7.44,72900.3,-15.57,-16.51,-16.51,0,*58
1511748130.5,6009,7.44,72900.0,-15.59,-16.51,-16.51,0,*57
1511748131.73,6010,7.38,72898.0,-15.57,-16.45,-16.41,0,*55
1511748132.98,6011,7.44,72906.0,-15.59,-16.51,-16.51,0,*5E
1511748134.22,6012,7.44,72906.8,-15.57,-16.59,-16.45,0,*5E
1511748135.5,6013,7.44,72906.3,-15.57,-16.51,-16.51,0,*52
1511748136.75,6014,7.44,72904.3,-15.57,-16.51,-16.45,0,*50
1511748138.0,6015,7.38,72902.8,-15.57,-16.51,-16.45,0,*51
1511748139.28,6016,7.38,72900.3,-15.57,-16.51,-16.51,0,*57
1511748140.57,6017,7.44,72900.0,-15.57,-16.51,-16.51,0,*56
1511748141.85,6018,7.44,72900.5,-15.57,-16.51,-16.51,0,*59
1511748143.13,6019,7.44,72902.3,-15.57,-16.51,-16.51,0,*58
1511748144.34,6020,7.44,72896.0,-15.53,-16.55,-16.45,0,*57
1511748145.57,6021,7.44,72900.8,-15.59,-16.51,-16.45,0,*58
1511748146.82,6022,7.44,72906.0,-15.57,-16.51,-16.45,0,*55
1511748148.07,6023,7.44,72910.3,-15.57,-16.51,-16.45,0,*54
1511748149.33,6024,7.38,72904.8,-15.57,-16.51,-16.45,0,*53
1511748150.53,6025,7.38,72906.5,-15.59,-16.45,-16.45,0,*59
1511748151.73,6026,7.44,72912.8,-15.59,-16.45,-16.45,0,*5A
1511748152.96,6027,7.44,72914.3,-15.57,-16.59,-16.45,0,*58
1511748154.2,6028,7.44,72910.5,-15.57,-16.59,-16.59,0,*5A
1511748155.48,6029,7.44,72910.0,-15.57,-16.51,-16.51,0,*5B
1511748156.69,6030,7.38,72908.3,-15.53,-16.45,-16.45,0,*57
1511748157.97,6031,7.44,72908.5,-15.57,-16.51,-16.51,0,*52
1511748159.18,6032,7.44,72910.5,-15.53,-16.45,-16.45,0,*55
1511748160.44,6033,7.44,72908.5,-15.57,-16.51,-16.41,0,*51
1511748161.71,6034,7.38,72902.3,-15.57,-16.51,-16.41,0,*56
1511748162.96,6035,7.44,72900.8,-15.57,-16.51,-16.45,0,*53
1511748164.21,6036,7.44,72904.5,-15.57,-16.51,-16.45,0,*50
1511748165.49,6037,7.44,72904.5,-15.57,-16.51,-16.51,0,*54
1511748166.74,6038,7.44,72900.3,-15.59,-16.51,-16.51,0,*55
1511748167.95,6039,7.44,72900.8,-15.59,-16.59,-16.45,0,*59
1511748169.2,6040,7.44,72900.8,-15.57,-16.51,-16.45,0,*51
1511748170.46,6041,7.44,72900.5,-15.57,-16.59,-16.51,0,*5D
1511748171.67,6042,7.44,72902.8,-15.53,-16.41,-16.45,0,*56
1511748172.93,6043,7.44,72902.5,-15.57,-16.45,-16.51,0,*52
1511748174.18,6044,7.44,72900.5,-15.57,-16.51,-16.45,0,*55
1511748175.39,6045,7.44,72900.5,-15.59,-16.59,-16.45,0,*52
1511748176.62,6046,7.44,72900.3,-15.57,-16.59,-16.45,0,*5F
1511748177.9,6047,7.38,72896.8,-15.57,-16.51,-16.51,0,*53
1511748179.15,6048,7.44,72902.8,-15.59,-16.51,-16.51,0,*52
1511748180.41,6049,7.44,72904.0,-15.57,-16.51,-16.59,0,*55
1511748181.69,6050,7.44,72902.8,-15.57,-16.51,-16.51,0,*55
1511748182.95,6051,7.38,72900.3,-15.57,-16.51,-16.45,0,*51
1511748184.21,6052,7.44,72904.0,-15.57,-16.59,-16.51,0,*5F
1511748185.49,6053,7.38,72900.0,-15.57,-16.51,-16.51,0,*56
1511748186.72,6054,7.38,72902.8,-15.57,-16.59,-16.45,0,*5C
1511748187.97,6055,7.38,72900.8,-15.57,-16.59,-16.51,0,*58
1511748189.26,6056,7.44,72906.5,-15.57,-16.51,-16.51,0,*53
1511748190.51,6057,7.44,72904.8,-15.57,-16.59,-16.51,0,*5A
1511748191.73,6058,7.44,72906.0,-15.53,-16.45,-16.45,0,*59
1511748192.98,6059,7.38,72906.5,-15.57,-16.51,-16.45,0,*59
1511748194.23,6060,7.44,72906.8,-15.57,-16.51,-16.45,0,*53
1511748195.49,6061,7.44,72910.0,-15.57,-16.51,-16.45,0,*52
1511748196.75,6062,7.44,72906.3,-15.57,-16.59,-16.51,0,*5C
1511748198.03,6063,7.44,72906.3,-15.57,-16.51,-16.51,0,*55
1511748199.28,6064,7.44,72906.8,-15.59,-16.51,-16.51,0,*5C
1511748200.56,6065,7.44,72906.3,-15.57,-16.51,-16.51,0,*53
1511748201.84,6066,7.38,72900.5,-15.57,-16.51,-16.51,0,*50
1511748203.12,6067,7.44,72902.8,-15.57,-16.51,-16.51,0,*51
1511748204.34,6068,7.38,72900.8,-15.53,-16.55,-16.45,0,*5B
1511748205.62,6069,7.44,72904.8,-15.57,-16.51,-16.51,0,*5F
1511748206.87,6070,7.44,72906.3,-15.59,-16.51,-16.51,0,*59
1511748208.1,6071,7.44,72904.3,-15.59,-16.59,-16.51,0,*50
1511748209.31,6072,7.44,72906.3,-15.53,-16.55,-16.45,0,*50
1511748210.57,6073,7.38,72906.5,-15.57,-16.59,-16.51,0,*5C
1511748211.83,6074,7.44,72906.8,-15.57,-16.59,-16.51,0,*5B
1511748213.07,6075,7.44,72906.8,-15.57,-16.59,-16.59,0,*52
1511748214.3,6076,7.44,72908.5,-15.59,-16.59,-16.51,0,*57
1511748215.56,6077,7.38,72900.5,-15.57,-16.59,-16.51,0,*58
1511748216.79,6078,7.38,72906.0,-15.59,-16.59,-16.51,0,*59
1511748218.02,6079,7.38,72900.0,-15.59,-16.59,-16.51,0,*58
1511748219.24,6080,7.44,72902.5,-15.59,-16.59,-16.51,0,*5E
1511748220.5,6081,7.38,72902.3,-15.59,-16.65,-16.51,0,*50
1511748221.77,6082,7.44,72904.8,-15.57,-16.65,-16.59,0,*55
1511748223.0,6083,7.44,72902.3,-15.59,-16.51,-16.59,0,*5D
1511748224.26,6084,7.44,72900.8,-15.57,-16.59,-16.51,0,*54
1511748225.5,6085,7.44,72900.5,-15.59,-16.65,-16.59,0,*5C
1511748226.74,6086,7.44,72904.3,-15.57,-16.59,-16.59,0,*5E
1511748228.0,6087,7.44,72904.0,-15.59,-16.65,-16.65,0,*51
1511748229.24,6088,7.38,72906.8,-15.59,-16.65,-16.59,0,*51
1511748230.49,6089,7.44,72904.0,-15.59,-16.65,-16.51,0,*58
1511748231.73,6090,7.38,72902.3,-15.59,-16.65,-16.59,0,*58
1511748232.99,6091,7.38,72902.5,-15.59,-16.65,-16.51,0,*51
1511748234.2,6092,7.44,72904.8,-15.59,-16.59,-16.59,0,*55
1511748235.45,6093,7.44,72902.0,-15.59,-16.65,-16.51,0,*53
1511748236.67,6094,7.44,72902.8,-15.59,-16.75,-16.59,0,*5D
1511748237.88,6095,7.44,72896.0,-15.59,-16.75,-16.59,0,*5C
1511748239.14,6096,7.44,72898.5,-15.57,-16.59,-16.65,0,*50
1511748240.37,6097,7.38,72892.0,-15.59,-16.51,-16.59,0,*58
1511748241.58,6098,7.38,72894.8,-15.59,-16.75,-16.59,0,*51
1511748242.84,6099,7.44,72898.0,-15.59,-16.65,-16.65,0,*5E
1511748244.1,6100,7.44,72900.5,-15.59,-16.65,-16.65,0,*5F
1511748245.36,6101,7.44,72900.0,-15.59,-16.65,-16.65,0,*5E
1511748246.57,6102,7.38,72896.8,-15.59,-16.75,-16.59,0,*53
1511748247.83,6103,7.44,72902.0,-15.59,-16.65,-16.65,0,*5C
1511748249.09,6104,7.44,72906.3,-15.59,-16.65,-16.65,0,*5B
1511748250.3,6105,7.38,72904.8,-15.59,-16.75,-16.59,0,*54
1511748251.56,6106,7.44,72904.5,-15.59,-16.69,-16.65,0,*55
1511748252.82,6107,7.38,72900.5,-15.59,-16.65,-16.65,0,*58
1511748254.07,6108,7.38,72900.0,-15.59,-16.65,-16.65,0,*57
1511748255.34,6109,7.44,72906.8,-15.63,-16.69,-16.69,0,*5F
1511748256.55,6110,7.44,72908.3,-15.59,-16.75,-16.59,0,*50
1511748257.79,6111,7.44,72908.5,-15.59,-16.65,-16.59,0,*50
1511748259.05,6112,7.44,72908.5,-15.59,-16.65,-16.65,0,*5C
1511748260.31,6113,7.38,72910.0,-15.61,-16.79,-16.69,0,*57
1511748261.57,6114,7.38,72910.3,-15.61,-16.55,-16.69,0,*5E
1511748262.8,6115,7.38,72910.8,-15.59,-16.75,-16.65,0,*5A
1511748264.04,6116,7.38,72910.3,-15.59,-16.65,-16.59,0,*57
1511748265.31,6117,7.44,72910.3,-15.61,-16.69,-16.55,0,*5D
1511748266.59,6118,7.44,72910.8,-15.61,-16.69,-16.69,0,*5D
1511748267.88,6119,7.38,72906.8,-15.61,-16.69,-16.69,0,*5C
1511748269.17,6120,7.38,72902.5,-15.61,-16.65,-16.65,0,*56
1511748270.43,6121,7.44,72910.0,-15.61,-16.65,-16.55,0,*54
1511748271.67,6122,7.44,72904.8,-15.63,-16.69,-16.55,0,*59
1511748272.93,6123,7.44,72906.0,-15.63,-16.69,-16.65,0,*5B
1511748274.22,6124,7.44,72906.8,-15.61,-16.69,-16.65,0,*5E
1511748275.51,6125,7.38,72902.0,-15.61,-16.65,-16.65,0,*53
1511748276.77,6126,7.44,72906.3,-15.61,-16.65,-16.55,0,*53
1511748278.04,6127,7.44,72906.8,-15.61,-16.65,-16.55,0,*52
1511748279.3,6128,7.44,72904.0,-15.61,-16.55,-16.65,0,*5D
1511748280.59,6129,7.38,72906.0,-15.61,-16.65,-16.65,0,*5F
1511748281.88,6130,7.44,72906.0,-15.61,-16.65,-16.65,0,*57
1511748283.17,6131,7.38,72904.0,-15.61,-16.65,-16.65,0,*56
1511748284.41,6132,7.38,72904.5,-15.63,-16.65,-16.55,0,*54
1511748285.68,6133,7.44,72906.5,-15.61,-16.65,-16.55,0,*57
1511748286.94,6134,7.44,72908.5,-15.61,-16.65,-16.55,0,*50
1511748288.18,6135,7.44,72906.5,-15.61,-16.55,-16.55,0,*52
1511748289.42,6136,7.38,72906.8,-15.61,-16.55,-16.55,0,*51
1511748290.69,6137,7.44,72904.8,-15.61,-16.55,-16.65,0,*53
1511748291.95,6138,7.44,72904.5,-15.61,-16.65,-16.55,0,*5C
1511748293.22,6139,7.44,72904.3,-15.61,-16.65,-16.55,0,*5D
1511748294.48,6140,7.38,72900.5,-15.61,-16.65,-16.55,0,*53
1511748295.73,6141,7.44,72904.8,-15.61,-16.55,-16.55,0,*51
1511748297.01,6142,7.38,72898.8,-15.61,-16.65,-16.65,0,*52
1511748298.28,6143,7.44,72902.0,-15.61,-16.65,-16.55,0,*50
1511748299.52,6144,7.38,72902.3,-15.63,-16.65,-16.55,0,*55
1511748300.79,6145,7.44,72906.0,-15.61,-16.65,-16.55,0,*56
1511748302.0,6146,7.38,72904.3,-15.63,-16.55,-16.55,0,*54
1511748303.29,6147,7.44,72904.3,-15.61,-16.65,-16.65,0,*57
1511748304.55,6148,7.44,72906.8,-15.63,-16.65,-16.65,0,*5A
1511748305.77,6149,7.44,72902.8,-15.63,-16.55,-16.55,0,*5B
1511748307.04,6150,7.38,72902.0,-15.61,-16.65,-16.55,0,*52
1511748308.33,6151,7.38,72900.5,-15.61,-16.65,-16.65,0,*50
1511748309.59,6152,7.44,72904.5,-15.63,-16.65,-16.65,0,*51
1511748310.88,6153,7.44,72904.3,-15.61,-16.65,-16.65,0,*52
1511748312.14,6154,7.38,72900.5,-15.63,-16.65,-16.65,0,*57
1511748313.41,6155,7.44,72902.8,-15.61,-16.55,-16.65,0,*57
1511748314.67,6156,7.44,72900.8,-15.61,-16.55,-16.65,0,*54
1511748315.91,6157,7.38,72900.5,-15.63,-16.65,-16.55,0,*57
1511748317.18,6158,7.44,72900.8,-15.61,-16.55,-16.65,0,*5A
1511748318.46,6159,7.44,72902.5,-15.61,-16.65,-16.65,0,*58
1511748319.75,6160,7.44,72902.8,-15.61,-16.65,-16.65,0,*52
1511748320.99,6161,7.44,72906.3,-15.63,-16.55,-16.65,0,*52
1511748322.21,6162,7.44,72904.5,-15.63,-16.55,-16.55,0,*52
1511748323.47,6163,7.38,72904.0,-15.63,-16.65,-16.65,0,*53
1511748324.74,6164,7.44,72906.5,-15.63,-16.69,-16.65,0,*58
1511748326.0,6165,7.38,72902.0,-15.63,-16.65,-16.65,0,*55
1511748327.26,6166,7.44,72904.8,-15.63,-16.69,-16.65,0,*5A
1511748328.53,6167,7.38,72902.8,-15.61,-16.65,-16.55,0,*56
1511748329.82,6168,7.44,72904.5,-15.61,-16.65,-16.65,0,*5A
1511748331.1,6169,7.38,72904.3,-15.61,-16.69,-16.65,0,*57
1511748332.37,6170,7.44,72906.5,-15.61,-16.69,-16.55,0,*5C
1511748333.63,6171,7.38,72902.3,-15.63,-16.69,-16.65,0,*5C
1511748334.89,6172,7.38,72906.8,-15.63,-16.65,-16.65,0,*53
1511748336.16,6173,7.38,72902.3,-15.63,-16.65,-16.65,0,*52
1511748337.42,6174,7.38,72902.0,-15.63,-16.69,-16.65,0,*59
1511748338.68,6175,7.38,72900.5,-15.63,-16.65,-16.65,0,*54
1511748339.92,6176,7.38,72900.8,-15.63,-16.79,-16.65,0,*5A
1511748341.21,6177,7.38,72902.3,-15.61,-16.69,-16.69,0,*54
1511748342.44,6178,7.38,72904.5,-15.63,-16.79,-16.65,0,*54
1511748343.71,6179,7.44,72906.0,-15.63,-16.69,-16.65,0,*54
1511748344.94,6180,7.44,72906.3,-15.63,-16.69,-16.55,0,*51
1511748346.21,6181,7.38,72906.3,-15.63,-16.69,-16.65,0,*53
1511748347.47,6182,7.38,72902.8,-15.63,-16.69,-16.65,0,*50
1511748348.73,6183,7.44,72906.0,-15.65,-16.83,-16.69,0,*5F
1511748350.02,6184,7.38,72902.8,-15.61,-16.69,-16.69,0,*58
1511748351.28,6185,7.38,72904.0,-15.63,-16.65,-16.65,0,*5B
1511748352.57,6186,7.38,72900.3,-15.61,-16.69,-16.69,0,*5A
1511748353.81,6187,7.44,72906.3,-15.63,-16.79,-16.65,0,*54
1511748355.09,6188,7.38,72902.0,-15.61,-16.69,-16.65,0,*58
1511748356.35,6189,7.38,72898.5,-15.63,-16.69,-16.65,0,*5B
1511748357.57,6190,7.38,72902.8,-15.63,-16.79,-16.79,0,*5F
1511748358.83,6191,7.38,72900.5,-15.63,-16.69,-16.65,0,*52
1511748360.09,6192,7.38,72902.5,-15.61,-16.79,-16.69,0,*5E
1511748361.34,6193,7.38,72904.3,-15.65,-16.75,-16.83,0,*53
1511748362.6,6194,7.38,72904.0,-15.65,-16.83,-16.69,0,*59
1511748363.87,6195,7.38,72906.5,-15.65,-16.75,-16.69,0,*51
1511748365.11,6196,7.38,72906.0,-15.65,-16.83,-16.75,0,*56
1511748366.36,6197,7.44,72906.3,-15.65,-16.75,-16.75,0,*5E
1511748367.62,6198,7.38,72904.8,-15.65,-16.89,-16.69,0,*5F
1511748368.86,6199,7.38,72906.8,-15.63,-16.79,-16.69,0,*57
1511748370.1,6200,7.38,72904.8,-15.63,-16.79,-16.69,0,*54
1511748371.36,6201,7.38,72906.0,-15.65,-16.83,-16.69,0,*56
1511748372.6,6202,7.38,72906.5,-15.65,-16.75,-16.83,0,*58
1511748373.82,6203,7.44,72908.3,-15.67,-16.83,-16.75,0,*5B
1511748375.07,6204,7.38,72908.3,-15.65,-16.83,-16.75,0,*5E
1511748376.31,6205,7.38,72910.0,-15.65,-16.89,-16.75,0,*55
1511748377.56,6206,7.38,72904.5,-15.65,-16.83,-16.75,0,*5C
1511748378.8,6207,7.44,72906.3,-15.65,-16.83,-16.75,0,*5D
1511748380.04,6208,7.38,72902.5,-15.65,-16.83,-16.83,0,*5B
1511748381.29,6209,7.44,72906.8,-15.65,-16.83,-16.83,0,*5A
1511748382.53,6210,7.38,72902.8,-15.65,-16.89,-16.75,0,*51
1511748383.75,6211,7.44,72906.3,-15.67,-16.89,-16.75,0,*52
1511748384.99,6212,7.38,72902.5,-15.65,-16.83,-16.75,0,*59
1511748386.24,6213,7.38,72902.3,-15.65,-16.83,-16.75,0,*58
1511748387.5,6214,7.38,72902.3,-15.65,-16.89,-16.69,0,*58
1511748388.74,6215,7.38,72902.5,-15.65,-16.89,-16.83,0,*5D
1511748389.98,6216,7.38,72900.5,-15.65,-16.83,-16.75,0,*5D
1511748391.23,6217,7.38,72904.3,-15.65,-16.83,-16.75,0,*5C
1511748392.47,6218,7.38,72902.8,-15.65,-16.75,-16.75,0,*5A
1511748393.72,6219,7.38,72906.0,-15.65,-16.75,-16.75,0,*5B
1511748394.97,6220,7.38,72906.5,-15.65,-16.75,-16.75,0,*51
1511748396.21,6221,7.38,72906.5,-15.65,-16.83,-16.75,0,*59
1511748397.45,6222,7.38,72906.8,-15.65,-16.75,-16.83,0,*5A
1511748398.7,6223,7.38,72902.3,-15.65,-16.83,-16.75,0,*5B
1511748399.94,6224,7.38,72904.0,-15.65,-16.83,-16.75,0,*5C
1511748401.19,6225,7.38,72900.3,-15.65,-16.83,-16.75,0,*5D
1511748402.41,6226,7.38,72906.3,-15.67,-16.83,-16.83,0,*55
1511748403.62,6227,7.44,72906.3,-15.67,-16.75,-16.83,0,*5D
1511748404.84,6228,7.38,72902.0,-15.67,-16.75,-16.83,0,*52
1511748406.08,6229,7.38,72904.5,-15.65,-16.75,-16.75,0,*58
1511748407.32,6230,7.38,72900.8,-15.65,-16.83,-16.83,0,*50
1511748408.54,6231,7.38,72904.5,-15.67,-16.75,-16.83,0,*5A
1511748409.76,6232,7.38,72904.0,-15.67,-16.83,-16.83,0,*50
1511748411.0,6233,7.38,72900.5,-15.65,-16.83,-16.83,0,*53
1511748412.22,6234,7.38,72904.0,-15.67,-16.75,-16.75,0,*56
1511748413.43,6235,7.38,72906.0,-15.67,-16.89,-16.75,0,*54
1511748414.65,6236,7.44,72912.0,-15.67,-16.83,-16.75,0,*5D
1511748415.87,6237,7.38,72910.5,-15.67,-16.83,-16.75,0,*5C
1511748417.11,6238,7.38,72906.0,-15.65,-16.83,-16.83,0,*58
1511748418.33,6239,7.38,72906.5,-15.67,-16.83,-16.75,0,*52
1511748419.55,6240,7.38,72904.8,-15.67,-16.83,-16.75,0,*5C
1511748420.76,6241,7.38,72904.5,-15.67,-16.83,-16.83,0,*54
1511748421.98,6242,7.38,72904.5,-15.67,-16.83,-16.75,0,*5E
1511748423.22,6243,7.38,72906.5,-15.65,-16.83,-16.83,0,*54
1511748424.44,6244,7.38,72900.8,-15.67,-16.75,-16.75,0,*51
1511748425.66,6245,7.44,72908.0,-15.67,-16.83,-16.75,0,*59
1511748426.9,6246,7.38,72906.5,-15.67,-16.75,-16.69,0,*5E
1511748428.12,6247,7.38,72904.8,-15.67,-16.75,-16.75,0,*52
1511748429.33,6248,7.38,72904.8,-15.67,-16.83,-16.83,0,*5D
1511748430.57,6249,7.38,72904.3,-15.67,-16.83,-16.69,0,*58
1511748431.79,6250,7.38,72904.3,-15.67,-16.83,-16.75,0,*5D
1511748433.01,6251,7.44,72908.0,-15.67,-16.83,-16.75,0,*5C
1511748434.23,6252,7.38,72906.3,-15.67,-16.75,-16.83,0,*5F
1511748435.44,6253,7.44,72908.0,-15.67,-16.75,-16.83,0,*5E
1511748436.65,6254,7.44,72910.3,-15.67,-16.89,-16.83,0,*5A
1511748437.89,6255,7.38,72908.0,-15.69,-16.79,-16.89,0,*50
1511748439.13,6256,7.38,72908.5,-15.69,-16.89,-16.79,0,*53
1511748440.37,6257,7.44,72910.0,-15.69,-16.89,-16.79,0,*52
1511748441.61,6258,7.38,72908.5,-15.69,-16.79,-16.79,0,*52
1511748442.85,6259,7.38,72908.5,-15.69,-16.89,-16.89,0,*53
1511748444.09,6260,7.38,72910.8,-15.69,-16.79,-16.89,0,*56
1511748445.3,6261,7.38,72908.3,-15.67,-16.75,-16.83,0,*5F
1511748446.52,6262,7.38,72912.0,-15.67,-16.75,-16.75,0,*55
1511748447.77,6263,7.38,72912.0,-15.69,-16.79,-16.75,0,*56
1511748449.01,6264,7.38,72912.3,-15.69,-16.89,-16.79,0,*52
1511748450.24,6265,7.38,72910.5,-15.69,-16.89,-16.79,0,*53
1511748451.49,6266,7.38,72910.5,-15.69,-16.79,-16.79,0,*5F
1511748452.73,6267,7.38,72910.3,-15.69,-16.89,-16.79,0,*51
1511748453.97,6268,7.44,72912.8,-15.69,-16.89,-16.79,0,*5E
1511748455.2,6269,7.44,72912.3,-15.69,-16.89,-16.89,0,*50
1511748456.44,6270,7.38,72910.3,-15.69,-16.89,-16.79,0,*57
1511748457.69,6271,7.38,72912.3,-15.69,-16.89,-16.75,0,*5A
1511748458.92,6272,7.38,72914.5,-15.69,-16.79,-16.89,0,*55
1511748460.14,6273,7.38,72910.8,-15.71,-16.79,-16.79,0,*52
1511748461.35,6274,7.38,72914.3,-15.71,-16.89,-16.79,0,*5A
1511748462.57,6275,7.38,72914.8,-15.71,-16.79,-16.79,0,*54
1511748463.81,6276,7.38,72914.8,-15.69,-16.79,-16.75,0,*52
1511748465.06,6277,7.44,72916.8,-15.69,-16.79,-16.75,0,*53
1511748466.33,6278,7.38,72914.5,-15.69,-16.65,-16.75,0,*51
1511748467.57,6279,7.38,72912.5,-15.69,-16.75,-16.75,0,*51
1511748468.82,6280,7.38,72912.3,-15.69,-16.79,-16.75,0,*5B
1511748470.04,6281,7.38,72912.3,-15.71,-16.75,-16.75,0,*5F
1511748471.31,6282,7.38,72914.0,-15.69,-16.75,-16.65,0,*54
1511748472.54,6283,7.38,72914.8,-15.71,-16.75,-16.65,0,*5C
1511748473.78,6284,7.38,72910.3,-15.71,-16.75,-16.65,0,*5B
1511748475.08,6285,7.38,72912.8,-15.69,-16.65,-16.65,0,*52
1511748476.35,6286,7.38,72912.0,-15.69,-16.65,-16.75,0,*50
1511748477.61,6287,7.38,72912.0,-15.71,-16.65,-16.65,0,*59
1511748478.88,6288,7.38,72914.5,-15.69,-16.75,-16.65,0,*5E
1511748480.17,6289,7.38,72912.0,-15.69,-16.65,-16.65,0,*5E
1511748481.46,6290,7.38,72912.8,-15.69,-16.65,-16.65,0,*56
1511748482.73,6291,7.38,72910.8,-15.69,-16.65,-16.55,0,*54
1511748484.0,6292,7.38,72914.3,-15.69,-16.65,-16.59,0,*5B
1511748485.22,6293,7.38,72912.8,-15.71,-16.59,-16.59,0,*5C
1511748486.46,6294,7.38,72912.0,-15.71,-16.65,-16.55,0,*58
1511748487.71,6295,7.38,72912.8,-15.69,-16.59,-16.55,0,*5F
1511748488.95,6296,7.38,72910.8,-15.69,-16.59,-16.55,0,*5C
1511748490.19,6297,7.38,72914.8,-15.69,-16.59,-16.55,0,*5D
1511748491.44,6298,7.38,72908.5,-15.69,-16.55,-16.59,0,*52
1511748492.67,6299,7.38,72910.3,-15.69,-16.55,-16.45,0,*5E
1511748493.92,6300,7.38,72912.8,-15.69,-16.59,-16.55,0,*52
1511748495.16,6301,7.38,72910.8,-15.69,-16.59,-16.55,0,*53
1511748496.38,6302,7.38,72910.0,-15.71,-16.59,-16.55,0,*59
1511748497.62,6303,7.38,72906.8,-15.69,-16.59,-16.55,0,*51
1511748498.85,6304,7.38,72904.8,-15.69,-16.59,-16.45,0,*57
1511748500.11,6305,7.38,72908.8,-15.67,-16.51,-16.51,0,*55
1511748501.33,6306,7.38,72906.5,-15.67,-16.55,-16.41,0,*53
1511748502.56,6307,7.38,72906.5,-15.67,-16.51,-16.41,0,*56
1511748503.8,6308,7.38,72910.5,-15.67,-16.51,-16.41,0,*59
1511748505.03,6309,7.38,72910.3,-15.67,-16.51,-16.37,0,*59
1511748506.27,6310,7.38,72908.5,-15.67,-16.41,-16.51,0,*50
1511748507.53,6311,7.38,72910.0,-15.67,-16.51,-16.51,0,*50